CZ-6A DEB, 56610

Orbit data source: Space-Track

CZ-6A DEB, 56610 is space debris in SSO originally from a launch on Fri, 11 Nov 2022 UTC launched from the Taiyaun Space Center, China (TSC). Debris objects in space refer to the collection of defunct objects orbiting the Earth. Examples of debris include non-operational satellites, rocket bodies, and fragments generated from explosions, collisions, or faulty payload assembly.

Loading next visibility...
Identifier
56610, 2022-151AEJ
Orbit
SSO
Country
Flag of CNCN / PRC
Related business
Manufacturer
SAST
Mission
Spacecraft
Bus & Motor
Unknown
Mass
Unknown
Launch date (UTC)
2022-11-11 (3 years ago)
Launch vehicle
Unknown
Launch site
Taiyaun Space Center, China (TSC)
Object type
Payload
Rocket body
Debris
Shape & HBR
Unknown shape, 0.1 m
Radar Cross Section
Small (<0.1 m²)

Expand to show TLE details & history
Last TLE update: 3 days ago

TLE from 3 days ago
0 CZ-6A DEB
1 56610U 22151AEJ 25351.44725571  .00000151  00000-0  11172-3 0  9992
2 56610  98.8334 345.0058 0053237 128.4706 232.1257 14.08489193156133
Epoch: 2025-12-17T10:44Z
TLE epoch observation values (Epoch: 2025-12-17T10:44:02.893Z)
Latitude
-0.00005°
Longitude
97.67677°
Altitude
891.245 km
Speed
7.394 km/s
True Right ascension
23h 00m 01s
True Declination
0° 00' 00"
Sunlit
Object was in daylight at epoch
Visualization orbit readout
Latitude
Unknown
Longitude
Unknown
Altitude
Unknown
Speed
Unknown
Apparent Right ascension
Unknown
Apparent Declination
Unknown
Sunlit
N/A
Visualization observer readout
Local Sidereal Time
06:42:13
Azimuth
Unknown
Elevation
Unknown
Doppler factor
Unknown
Orbital elements
Apogee altitude
900.269 km
Perigee altitude
823.183 km
Semi-major axis
7,239.863 km
Eccentricity
0.00532
Inclination
98.8334°
RAAN
345.0058°
Arg. of periapsis
128.4706°
True anomaly
231.64612°
Mean anomaly
232.1257°
Eccentric anomaly
231.88571°
Mean motion
3.52328 °/min
Orbital period
102.18 mins
BSTAR
0.00011172
Loading maneuver chart data...
Computing Atmospheric mass density...
Loading historical data...
Loading historical data...
Loading historical data...
Loading historical data...
Loading historical data...
Loading historical data...
Loading historical data...

Documentation

Showing up to 5 results
|